Regional Weather Roundup
Issued by NWS

Home | Current Version | Previous Version | Text Only | Print | Product List | Glossary On
Versions: 1 2 3 4 5 6 7 8 9 10 11 12 13 14 15 16 17 18 19 20 21 22 23 24 25 26 27
000
ASUS44 KLIX 201313
RWRLA
LOUISIANA WEATHER ROUNDUP
NATIONAL WEATHER SERVICE NEW ORLEANS LA
800 AM CDT WED SEP 20 2017

NOTE: "FAIR" INDICATES FEW OR NO CLOUDS BELOW 12,000 FEET WITH NO
      SIGNIFICANT WEATHER AND/OR OBSTRUCTIONS TO VISIBILITY.
      SKY/WX - SKY CONDITION AND SIGNIFICANT WEATHER.
      TMP - AIR TEMPERATURE.    DP   - DEWPOINT TEMPERATURE.
      RH  - RELATIVE HUMIDITY.  PRES - PRESSURE.
      HX  - HEAT INDEX.         WCI  - WIND CHILL INDEX.

*  THESE STATIONS ARE NOT NWS OR FAA STATIONS AND ARE NOT UNDER
   NWS QUALITY CONTROL.

LAZ040-048-061>063-065-066-069-201400-
SOUTHEAST LOUISIANA

CITY           SKY/WX    TMP DP  RH WIND       PRES   REMARKS
N.O. INTL ARPT PTSUNNY   79  76  90 S3        30.00R
N.O. LAKEFRONT MOSUNNY   81  76  84 S5        30.00R
N.O. DOWNTOWN* FAIR      81  75  82 S5        30.01R
RESERVE*       FAIR      80  76  87 CALM      30.00R
SLIDELL        CLOUDY    78  74  87 CALM      29.99S
BATON ROUGE    MOSUNNY   75  73  93 CALM      30.00R
BOOTHVILLE     MOSUNNY   82  77  84 SE3       30.01R
BELLE CHASSE   NOT AVBL
BOGALUSA*      FAIR      75  72  88 CALM      30.03R
GALLIANO*      SUNNY     79  74  86 CALM      30.00S
NEW ROADS*     FAIR      74  74  99 CALM      30.00R FOG
GONZALES*      FAIR      75  75  98 CALM      30.00R FOG
HAMMOND*       CLOUDY    73  70  88 CALM      30.01R
HOUMA*         SUNNY     77  77 100 CALM      29.99S
PORT FOURCHON* MOSUNNY   84  73  70 S6        30.01R

$$

LAZ041-044-053-054-201400-
SOUTHWEST LOUISIANA

CITY           SKY/WX    TMP DP  RH WIND       PRES   REMARKS
LAKE CHARLES   MOSUNNY   78  76  93 CALM      29.97R
LAFAYETTE      SUNNY     78  77  96 CALM      29.98S
PATTERSON      SUNNY     78  76  93 CALM      30.00R
SALT POINT       N/A     83  75  77 CALM      29.97R
NEW IBERIA     SUNNY     78  74  87 CALM      29.99R
CHENAULT AIRPK MOSUNNY   75  75 100 CALM      29.97R

$$

LAZ027-028-201400-
CENTRAL LOUISIANA

CITY           SKY/WX    TMP DP  RH WIND       PRES   REMARKS
FORT POLK      CLOUDY    76  75  97 SE3       29.98R
ALEXANDRIA INT FOG       75  75 100 CALM      29.97R VSB 1
ALEXANDRIA     FOG       74  74 100 CALM      29.99R VSB 1/4

$$

LAZ001-002-201400-
NORTHWEST LOUISIANA

CITY           SKY/WX    TMP DP  RH WIND       PRES   REMARKS
SHREVEPORT     CLOUDY    78  76  93 S7        29.95R
BARKSDALE AFB  CLOUDY    76  76 100 S8        29.95R
DTN SHREVEPORT CLOUDY    79  75  87 S8        29.95R

$$

LAZ014-016-201400-
NORTHEAST LOUISIANA

CITY           SKY/WX    TMP DP  RH WIND       PRES   REMARKS
MONROE         PTSUNNY   74  74 100 CALM      29.99R FOG
TALLULAH       CLOUDY    75  74  96 S5        29.99R

$$





USA.gov is the U.S. government's official web portal to all federal, state and local government web resources and services.